TimeCDT,TemperatureF,Dew PointF,Humidity,Sea Level PressureIn,VisibilityMPH,Wind Direction,Wind SpeedMPH,Gust SpeedMPH,PrecipitationIn,Events,Conditions,WindDirDegrees,DateUTC
12:15 AM,68.0,63.7,86,30.15,10.0,Calm,Calm,-,N/A,,Scattered Clouds,0,2013-07-30 05:15:00
12:35 AM,69.8,65.7,87,30.14,10.0,East,6.9,-,N/A,,Scattered Clouds,100,2013-07-30 05:35:00
12:55 AM,70.3,65.8,86,30.15,10.0,Calm,Calm,-,N/A,,Clear,0,2013-07-30 05:55:00
1:15 AM,70.9,65.3,82,30.15,10.0,East,4.6,-,N/A,,Clear,90,2013-07-30 06:15:00
1:35 AM,70.7,64.4,80,30.14,10.0,East,3.5,-,N/A,,Clear,90,2013-07-30 06:35:00
1:55 AM,70.2,63.9,80,30.13,10.0,East,4.6,-,N/A,,Clear,90,2013-07-30 06:55:00
2:15 AM,70.2,63.9,80,30.14,10.0,East,3.5,-,N/A,,Scattered Clouds,80,2013-07-30 07:15:00
2:35 AM,70.2,64.0,81,30.13,10.0,East,4.6,-,N/A,,Clear,100,2013-07-30 07:35:00
2:55 AM,70.2,63.9,80,30.13,10.0,ESE,4.6,-,N/A,,Scattered Clouds,120,2013-07-30 07:55:00
3:15 AM,71.1,64.4,79,30.14,10.0,ESE,3.5,-,N/A,,Mostly Cloudy,120,2013-07-30 08:15:00
3:35 AM,71.6,64.4,78,30.14,10.0,SE,5.8,-,N/A,,Overcast,140,2013-07-30 08:35:00
3:55 AM,71.6,63.5,76,30.13,10.0,SE,6.9,-,N/A,,Mostly Cloudy,130,2013-07-30 08:55:00
4:15 AM,71.6,63.0,74,30.12,10.0,ESE,5.8,-,N/A,,Scattered Clouds,120,2013-07-30 09:15:00
4:35 AM,71.2,63.1,75,30.12,10.0,Calm,Calm,-,N/A,,Clear,0,2013-07-30 09:35:00
4:55 AM,71.2,63.5,76,30.12,10.0,SE,4.6,-,N/A,,Mostly Cloudy,130,2013-07-30 09:55:00
5:15 AM,71.8,63.3,75,30.12,10.0,SE,5.8,-,N/A,,Overcast,140,2013-07-30 10:15:00
5:35 AM,71.6,63.0,74,30.13,10.0,South,3.5,-,N/A,,Mostly Cloudy,170,2013-07-30 10:35:00
5:55 AM,70.9,63.3,77,30.13,10.0,SE,4.6,-,N/A,,Light Drizzle,140,2013-07-30 10:55:00
6:15 AM,71.1,63.5,77,30.13,7.0,ESE,5.8,-,0.01,Rain,Light Rain,110,2013-07-30 11:15:00
6:35 AM,71.1,64.0,78,30.13,10.0,ESE,4.6,-,0.01,,Overcast,120,2013-07-30 11:35:00
6:55 AM,71.2,64.0,78,30.13,10.0,SE,6.9,-,0.01,,Mostly Cloudy,130,2013-07-30 11:55:00
7:15 AM,71.2,64.4,79,30.13,10.0,ESE,5.8,-,N/A,,Mostly Cloudy,120,2013-07-30 12:15:00
7:35 AM,71.6,64.9,79,30.13,10.0,ESE,5.8,-,N/A,,Overcast,120,2013-07-30 12:35:00
7:55 AM,71.8,64.6,78,30.13,10.0,East,6.9,-,N/A,,Overcast,100,2013-07-30 12:55:00
8:15 AM,71.8,64.4,77,30.13,10.0,ESE,8.1,-,N/A,,Overcast,120,2013-07-30 13:15:00
8:35 AM,72.1,64.0,76,30.13,10.0,SE,5.8,-,N/A,,Overcast,130,2013-07-30 13:35:00
8:55 AM,72.1,62.8,72,30.13,10.0,SE,9.2,-,N/A,,Light Drizzle,130,2013-07-30 13:55:00
9:15 AM,72.1,62.8,72,30.12,10.0,SE,6.9,-,N/A,,Overcast,130,2013-07-30 14:15:00
9:35 AM,71.1,63.7,77,30.13,7.0,Calm,Calm,-,0.06,Rain,Light Rain,0,2013-07-30 14:35:00
9:55 AM,70.5,64.6,81,30.14,10.0,Calm,Calm,-,0.06,Rain,Rain,0,2013-07-30 14:55:00
10:15 AM,71.6,65.3,80,30.14,10.0,Calm,Calm,-,0.01,Rain,Rain,0,2013-07-30 15:15:00
10:35 AM,72.1,65.8,80,30.14,10.0,SE,3.5,-,0.01,Rain,Rain,140,2013-07-30 15:35:00
10:55 AM,71.8,65.8,81,30.14,10.0,SE,3.5,-,0.01,,Drizzle,140,2013-07-30 15:55:00
11:15 AM,72.0,66.6,83,30.14,7.0,SSE,4.6,-,0.01,Rain,Rain,150,2013-07-30 16:15:00
11:55 AM,71.6,67.1,86,30.14,5.0,South,4.6,-,0.07,Rain,Rain,170,2013-07-30 16:55:00
12:15 PM,72.0,67.6,86,30.13,5.0,SSE,6.9,-,0.02,Rain,Light Rain,150,2013-07-30 17:15:00
12:35 PM,72.9,68.9,87,30.12,7.0,SE,9.2,-,0.03,,Drizzle,140,2013-07-30 17:35:00
1:15 PM,73.9,70.2,88,30.09,7.0,SSE,6.9,-,N/A,,Drizzle,150,2013-07-30 18:15:00
1:35 PM,74.7,70.9,88,30.09,7.0,SSE,6.9,-,N/A,Rain,Rain,160,2013-07-30 18:35:00
1:55 PM,75.2,71.6,89,30.08,10.0,South,8.1,-,N/A,Rain,Light Rain,170,2013-07-30 18:55:00
2:15 PM,75.7,71.8,87,30.07,10.0,SSE,9.2,-,N/A,,Overcast,160,2013-07-30 19:15:00
2:35 PM,76.1,71.6,86,30.06,10.0,SE,9.2,-,N/A,Rain,Rain,140,2013-07-30 19:35:00
2:55 PM,76.1,71.6,86,30.06,10.0,SE,5.8,-,N/A,,Mostly Cloudy,130,2013-07-30 19:55:00
3:15 PM,76.1,71.6,86,30.07,10.0,South,5.8,-,N/A,,Mostly Cloudy,170,2013-07-30 20:15:00
3:35 PM,75.9,71.2,85,30.07,5.0,South,6.9,-,N/A,Rain,Rain,170,2013-07-30 20:35:00
3:55 PM,75.6,71.6,87,30.06,5.0,SSE,4.6,-,0.02,Rain,Rain,160,2013-07-30 20:55:00
4:15 PM,75.7,71.8,87,30.06,4.0,SSE,5.8,-,0.01,,Heavy Drizzle,160,2013-07-30 21:15:00
4:35 PM,75.2,71.6,89,30.06,3.0,SSE,4.6,-,0.05,Rain,Heavy Rain,160,2013-07-30 21:35:00
4:55 PM,75.2,71.6,89,30.05,10.0,SE,5.8,-,0.05,,Overcast,140,2013-07-30 21:55:00
5:15 PM,75.4,71.6,88,30.05,5.0,SE,4.6,-,0.01,,Drizzle,130,2013-07-30 22:15:00
5:35 PM,75.2,71.6,89,30.05,5.0,SE,6.9,-,0.01,,Drizzle,130,2013-07-30 22:35:00
5:55 PM,75.2,71.6,89,30.04,7.0,SE,6.9,-,0.01,Rain,Light Rain,140,2013-07-30 22:55:00
6:15 PM,75.7,72.0,88,30.04,7.0,SSE,5.8,-,N/A,,Overcast,150,2013-07-30 23:15:00
6:35 PM,75.4,71.6,88,30.03,7.0,SE,5.8,-,N/A,,Overcast,130,2013-07-30 23:35:00
6:55 PM,75.2,71.6,89,30.03,7.0,SE,5.8,-,N/A,Rain,Light Rain,130,2013-07-30 23:55:00
7:15 PM,74.8,71.2,88,30.03,2.5,SE,8.1,-,0.04,Rain,Rain,130,2013-07-31 00:15:00
7:35 PM,74.5,70.9,88,30.03,3.0,SE,5.8,-,0.06,,Heavy Drizzle,140,2013-07-31 00:35:00
7:55 PM,74.3,70.7,88,30.03,5.0,SE,8.1,-,0.06,,Drizzle,140,2013-07-31 00:55:00
8:15 PM,74.3,70.9,89,30.04,4.0,SE,9.2,-,0.02,Rain,Heavy Rain,130,2013-07-31 01:15:00
8:35 PM,73.9,70.7,90,30.04,7.0,ESE,5.8,-,0.02,,Overcast,120,2013-07-31 01:35:00
8:55 PM,73.9,70.7,90,30.03,7.0,ESE,8.1,-,0.02,,Drizzle,120,2013-07-31 01:55:00
9:15 PM,73.9,70.7,90,30.03,10.0,ESE,5.8,-,N/A,,Overcast,110,2013-07-31 02:15:00
9:35 PM,73.9,70.7,90,30.04,7.0,ESE,5.8,-,N/A,,Overcast,110,2013-07-31 02:35:00
9:55 PM,73.9,70.3,88,30.04,7.0,SE,5.8,-,N/A,,Overcast,130,2013-07-31 02:55:00
10:15 PM,73.8,70.2,88,30.04,7.0,SE,4.6,-,N/A,,Overcast,130,2013-07-31 03:15:00
10:35 PM,73.4,69.8,88,30.04,7.0,SSE,3.5,-,N/A,,Overcast,150,2013-07-31 03:35:00
10:55 PM,72.7,69.1,88,30.04,7.0,SE,3.5,-,N/A,,Overcast,140,2013-07-31 03:55:00
11:15 PM,73.0,69.4,88,30.04,10.0,Calm,Calm,-,N/A,,Mostly Cloudy,0,2013-07-31 04:15:00
11:35 PM,73.4,69.8,88,30.04,10.0,Calm,Calm,-,N/A,,Overcast,0,2013-07-31 04:35:00
11:55 PM,73.6,70.0,88,30.04,10.0,Calm,Calm,-,N/A,,Overcast,0,2013-07-31 04:55:00